Overview Statistics Trail Chart Weather Telemetry Raw packets
 

This is the latest recevied weather packets stored in our database for station/object K5FEP. If no packets are shown the sender has not sent any weather packets the latest 10 day(s).

<< 23 24 25 26 27 28 29 >>
Time Temp. Humidity Pressure Rain* Wind** Luminosity Snow
1788480281 32.22° C 52% 1014.2 hPa 0 mm - 0 W/m² -
1788479976 32.78° C 50% 1013.9 hPa 0 mm - 0 W/m² -
1788479672 32.78° C 49% 1013.8 hPa 0 mm - 1 W/m² -
1788479372 33.33° C 48% 1013.9 hPa 0 mm - 1 W/m² -
1788479067 33.33° C 47% 1013.7 hPa 0 mm - 3 W/m² -
1788478764 33.33° C 47% 1013.8 hPa 0 mm - 5 W/m² -
1788478460 33.89° C 46% 1013.8 hPa 0 mm - 8 W/m² -
1788478174 33.89° C 46% 1013.6 hPa 0 mm - 12 W/m² -
1788477855 33.89° C 46% 1013.8 hPa 0 mm - 16 W/m² -
1788477554 34.44° C 45% 1013.6 hPa 0 mm - 20 W/m² -
1788477249 34.44° C 45% 1013.6 hPa 0 mm - 24 W/m² -
1788476944 35° C 45% 1013.7 hPa 0 mm - 29 W/m² -
1788476639 35° C 45% 1013.7 hPa 0 mm - 34 W/m² -
1788476336 35° C 45% 1013.5 hPa 0 mm - 39 W/m² -
1788476031 35.56° C 44% 1013.6 hPa 0 mm - 43 W/m² -
1788475728 35.56° C 44% 1013.4 hPa 0 mm - 50 W/m² -
1788475424 35.56° C 44% 1013.6 hPa 0 mm - 60 W/m² -
1788475119 35.56° C 44% 1013.4 hPa 0 mm - 75 W/m² -
1788474818 36.11° C 44% 1013.5 hPa 0 mm - 71 W/m² -
1788474513 36.11° C 43% 1013.4 hPa 0 mm - 89 W/m² -
1788474212 35.56° C 44% 1013.6 hPa 0 mm - 122 W/m² -
1788473907 35.56° C 44% 1013.6 hPa 0 mm - 112 W/m² -
1788473606 36.11° C 42% 1013.7 hPa 0 mm - 66 W/m² -
1788473304 36.67° C 42% 1013.6 hPa 0 mm - 74 W/m² -
1788472999 37.22° C 40% 1013.6 hPa 0 mm - 174 W/m² -

* Rain latest hour (hover to see other rain measurements)
** Current wind speed in m/s (hover to see current wind gust speed)